Time,TemperatureF,DewpointF,PressureIn,WindDirection,WindDirectionDegrees,WindSpeedMPH,WindSpeedGustMPH,Humidity,HourlyPrecipIn,Conditions,Clouds,dailyrainin,SoftwareType,DateUTC
2013-01-18 00:01:00,35.2,32.3,30.46,ESE,112,0.0,-999.0,89,-99.99,,,0.00,Acu-Link.com,2013-01-18 06:01:00,
2013-01-18 00:16:00,36.3,32.3,30.46,SE,135,2.2,-999.0,85,-99.99,,,0.00,Acu-Link.com,2013-01-18 06:16:00,
2013-01-18 00:31:00,35.2,31.2,30.46,ESE,112,0.0,-999.0,85,-99.99,,,0.00,Acu-Link.com,2013-01-18 06:31:00,
2013-01-18 00:46:00,34.2,31.3,30.46,SSW,202,0.0,-999.0,89,-99.99,,,0.00,Acu-Link.com,2013-01-18 06:46:00,
2013-01-18 01:01:00,34.5,32.2,30.46,SE,135,0.0,-999.0,91,-99.99,,,0.00,Acu-Link.com,2013-01-18 07:01:00,
2013-01-18 01:16:00,34.0,31.4,30.46,ESE,112,0.0,-999.0,90,-99.99,,,0.00,Acu-Link.com,2013-01-18 07:16:00,
2013-01-18 01:32:00,33.1,31.0,30.46,SE,135,0.0,-999.0,92,-99.99,,,0.00,Acu-Link.com,2013-01-18 07:32:00,
2013-01-18 01:47:00,33.3,31.2,30.46,ESE,112,0.0,-999.0,92,-99.99,,,0.00,Acu-Link.com,2013-01-18 07:47:00,
2013-01-18 02:02:00,32.5,30.7,30.45,ESE,112,0.0,-999.0,93,-99.99,,,0.00,Acu-Link.com,2013-01-18 08:02:00,
2013-01-18 02:17:00,32.0,29.7,30.45,ESE,112,0.0,-999.0,91,-99.99,,,0.00,Acu-Link.com,2013-01-18 08:17:00,
2013-01-18 02:32:00,31.6,29.9,30.45,ESE,112,0.0,-999.0,93,-99.99,,,0.00,Acu-Link.com,2013-01-18 08:32:00,
2013-01-18 02:48:00,31.6,29.9,30.44,ESE,112,0.0,-999.0,93,-99.99,,,0.00,Acu-Link.com,2013-01-18 08:48:00,
2013-01-18 03:03:00,31.1,29.6,30.44,ESE,112,0.0,-999.0,94,-99.99,,,0.00,Acu-Link.com,2013-01-18 09:03:00,
2013-01-18 03:18:00,31.1,29.6,30.43,ESE,112,0.0,-999.0,94,-99.99,,,0.00,Acu-Link.com,2013-01-18 09:18:00,
2013-01-18 03:33:00,30.6,29.3,30.43,East,90,0.0,-999.0,95,-99.99,,,0.00,Acu-Link.com,2013-01-18 09:33:00,
2013-01-18 03:49:00,30.4,29.4,30.43,ESE,112,2.2,-999.0,96,-99.99,,,0.00,Acu-Link.com,2013-01-18 09:49:00,
2013-01-18 04:04:00,30.2,29.5,30.42,SE,135,2.7,-999.0,97,-99.99,,,0.00,Acu-Link.com,2013-01-18 10:04:00,
2013-01-18 04:19:00,30.2,29.5,30.41,ESE,112,2.7,-999.0,97,-99.99,,,0.00,Acu-Link.com,2013-01-18 10:19:00,
2013-01-18 04:34:00,30.2,29.5,30.41,SSE,157,2.2,-999.0,97,-99.99,,,0.00,Acu-Link.com,2013-01-18 10:34:00,
2013-01-18 04:49:00,29.5,28.7,30.40,South,180,0.0,-999.0,97,-99.99,,,0.00,Acu-Link.com,2013-01-18 10:49:00,
2013-01-18 05:05:00,29.1,28.6,30.40,WSW,247,0.0,-999.0,98,-99.99,,,0.00,Acu-Link.com,2013-01-18 11:05:00,
2013-01-18 05:20:00,28.6,28.1,30.39,WSW,247,0.0,-999.0,98,-99.99,,,0.00,Acu-Link.com,2013-01-18 11:20:00,
2013-01-18 05:35:00,28.8,27.8,30.39,South,180,0.0,-999.0,96,-99.99,,,0.00,Acu-Link.com,2013-01-18 11:35:00,
2013-01-18 05:50:00,28.6,27.1,30.39,SE,135,1.6,-999.0,94,-99.99,,,0.00,Acu-Link.com,2013-01-18 11:50:00,
2013-01-18 06:05:00,28.4,26.6,30.38,SSW,202,0.0,-999.0,93,-99.99,,,0.00,Acu-Link.com,2013-01-18 12:05:00,
2013-01-18 06:21:00,27.7,27.2,30.38,NNW,337,0.0,-999.0,98,-99.99,,,0.00,Acu-Link.com,2013-01-18 12:21:00,
2013-01-18 06:36:00,28.4,26.6,30.38,ESE,112,3.1,-999.0,93,-99.99,,,0.00,Acu-Link.com,2013-01-18 12:36:00,
2013-01-18 06:51:00,28.4,27.2,30.38,East,90,0.0,-999.0,95,-99.99,,,0.00,Acu-Link.com,2013-01-18 12:51:00,
2013-01-18 07:06:00,28.0,27.5,30.38,SE,135,0.0,-999.0,98,-99.99,,,0.00,Acu-Link.com,2013-01-18 13:06:00,
2013-01-18 07:21:00,27.9,27.4,30.38,ENE,67,2.7,-999.0,98,-99.99,,,0.00,Acu-Link.com,2013-01-18 13:21:00,
2013-01-18 07:37:00,27.7,27.2,30.39,ENE,67,0.0,-999.0,98,-99.99,,,0.00,Acu-Link.com,2013-01-18 13:37:00,
2013-01-18 07:52:00,27.9,27.4,30.39,NE,45,0.0,-999.0,98,-99.99,,,0.00,Acu-Link.com,2013-01-18 13:52:00,
2013-01-18 08:07:00,30.4,29.9,30.38,ESE,112,3.1,-999.0,98,-99.99,,,0.00,Acu-Link.com,2013-01-18 14:07:00,
2013-01-18 08:22:00,32.0,30.2,30.38,SE,135,2.7,-999.0,93,-99.99,,,0.00,Acu-Link.com,2013-01-18 14:22:00,
2013-01-18 08:38:00,32.7,30.7,30.38,ESE,112,2.7,-999.0,92,-99.99,,,0.00,Acu-Link.com,2013-01-18 14:38:00,
2013-01-18 08:53:00,35.4,31.9,30.39,ESE,112,2.7,-999.0,87,-99.99,,,0.00,Acu-Link.com,2013-01-18 14:53:00,
2013-01-18 09:08:00,37.0,32.7,30.40,SSE,157,2.7,-999.0,84,-99.99,,,0.00,Acu-Link.com,2013-01-18 15:08:00,
2013-01-18 09:23:00,39.2,33.9,30.40,SE,135,1.6,-999.0,81,-99.99,,,0.00,Acu-Link.com,2013-01-18 15:23:00,
2013-01-18 09:38:00,41.4,34.7,30.40,SSW,202,3.8,-999.0,77,-99.99,,,0.00,Acu-Link.com,2013-01-18 15:38:00,
2013-01-18 09:54:00,41.7,34.1,30.41,West,270,3.8,-999.0,74,-99.99,,,0.00,Acu-Link.com,2013-01-18 15:54:00,
2013-01-18 10:09:00,42.6,35.3,30.41,West,270,6.7,-999.0,75,-99.99,,,0.00,Acu-Link.com,2013-01-18 16:09:00,
2013-01-18 10:24:00,43.9,35.4,30.41,West,270,5.1,-999.0,72,-99.99,,,0.00,Acu-Link.com,2013-01-18 16:24:00,
2013-01-18 10:39:00,46.0,36.1,30.40,SSE,157,4.7,-999.0,68,-99.99,,,0.00,Acu-Link.com,2013-01-18 16:39:00,
2013-01-18 10:54:00,48.0,36.4,30.39,SW,225,6.3,-999.0,64,-99.99,,,0.00,Acu-Link.com,2013-01-18 16:54:00,
2013-01-18 11:10:00,50.4,36.1,30.39,SSE,157,11.9,-999.0,58,-99.99,,,0.00,Acu-Link.com,2013-01-18 17:10:00,
2013-01-18 11:25:00,52.7,37.0,30.38,SSW,202,6.7,-999.0,55,-99.99,,,0.00,Acu-Link.com,2013-01-18 17:25:00,
2013-01-18 11:40:00,52.9,36.2,30.37,SW,225,13.0,-999.0,53,-99.99,,,0.00,Acu-Link.com,2013-01-18 17:40:00,
2013-01-18 11:55:00,54.3,36.1,30.35,South,180,11.9,-999.0,50,-99.99,,,0.00,Acu-Link.com,2013-01-18 17:55:00,
2013-01-18 12:10:00,55.4,37.1,30.34,West,270,9.8,-999.0,50,-99.99,,,0.00,Acu-Link.com,2013-01-18 18:10:00,
2013-01-18 12:26:00,55.8,36.4,30.33,SSW,202,15.4,-999.0,48,-99.99,,,0.00,Acu-Link.com,2013-01-18 18:26:00,
2013-01-18 12:41:00,56.1,36.2,30.30,SSW,202,13.0,-999.0,47,-99.99,,,0.00,Acu-Link.com,2013-01-18 18:41:00,
2013-01-18 12:56:00,57.7,36.5,30.29,South,180,12.5,-999.0,45,-99.99,,,0.00,Acu-Link.com,2013-01-18 18:56:00,
2013-01-18 13:11:00,58.3,37.0,30.28,SW,225,9.4,-999.0,45,-99.99,,,0.00,Acu-Link.com,2013-01-18 19:11:00,
2013-01-18 13:27:00,58.6,36.8,30.28,SSW,202,14.1,-999.0,44,-99.99,,,0.00,Acu-Link.com,2013-01-18 19:27:00,
2013-01-18 13:42:00,59.2,36.7,30.26,SSW,202,11.4,-999.0,43,-99.99,,,0.00,Acu-Link.com,2013-01-18 19:42:00,
2013-01-18 13:57:00,60.1,36.9,30.25,SW,225,8.3,-999.0,42,-99.99,,,0.00,Acu-Link.com,2013-01-18 19:57:00,
2013-01-18 14:12:00,60.8,37.0,30.24,SW,225,10.3,-999.0,41,-99.99,,,0.00,Acu-Link.com,2013-01-18 20:12:00,
2013-01-18 14:27:00,60.8,36.3,30.24,South,180,13.0,-999.0,40,-99.99,,,0.00,Acu-Link.com,2013-01-18 20:27:00,
2013-01-18 14:43:00,61.9,36.7,30.22,South,180,10.3,-999.0,39,-99.99,,,0.00,Acu-Link.com,2013-01-18 20:43:00,
2013-01-18 14:58:00,62.1,36.8,30.22,SW,225,15.4,-999.0,39,-99.99,,,0.00,Acu-Link.com,2013-01-18 20:58:00,
2013-01-18 15:13:00,61.9,36.0,30.21,SSW,202,9.8,-999.0,38,-99.99,,,0.00,Acu-Link.com,2013-01-18 21:13:00,
2013-01-18 15:28:00,62.2,37.0,30.20,South,180,11.9,-999.0,39,-99.99,,,0.00,Acu-Link.com,2013-01-18 21:28:00,
2013-01-18 15:43:00,62.1,36.8,30.20,SSE,157,11.9,-999.0,39,-99.99,,,0.00,Acu-Link.com,2013-01-18 21:43:00,
2013-01-18 15:59:00,62.1,36.8,30.19,SSE,157,10.3,-999.0,39,-99.99,,,0.00,Acu-Link.com,2013-01-18 21:59:00,
2013-01-18 16:14:00,62.1,36.8,30.19,SSW,202,8.3,-999.0,39,-99.99,,,0.00,Acu-Link.com,2013-01-18 22:14:00,
2013-01-18 16:29:00,62.1,36.8,30.18,SW,225,11.9,-999.0,39,-99.99,,,0.00,Acu-Link.com,2013-01-18 22:29:00,
2013-01-18 16:44:00,61.5,37.0,30.18,SSW,202,10.3,-999.0,40,-99.99,,,0.00,Acu-Link.com,2013-01-18 22:44:00,
2013-01-18 16:59:00,61.5,37.0,30.18,SSE,157,8.3,-999.0,40,-99.99,,,0.00,Acu-Link.com,2013-01-18 22:59:00,
2013-01-18 17:15:00,60.6,37.4,30.18,SSW,202,8.3,-999.0,42,-99.99,,,0.00,Acu-Link.com,2013-01-18 23:15:00,
2013-01-18 17:30:00,59.5,37.0,30.17,South,180,11.9,-999.0,43,-99.99,,,0.00,Acu-Link.com,2013-01-18 23:30:00,
2013-01-18 17:45:00,58.5,36.6,30.17,SE,135,7.4,-999.0,44,-99.99,,,0.00,Acu-Link.com,2013-01-18 23:45:00,
2013-01-18 18:00:00,57.0,37.0,30.17,South,180,7.4,-999.0,47,-99.99,,,0.00,Acu-Link.com,2013-01-19 00:00:00,
2013-01-18 18:16:00,55.9,36.5,30.17,South,180,7.8,-999.0,48,-99.99,,,0.00,Acu-Link.com,2013-01-19 00:16:00,
2013-01-18 18:31:00,55.8,36.9,30.17,SSE,157,5.8,-999.0,49,-99.99,,,0.00,Acu-Link.com,2013-01-19 00:31:00,
2013-01-18 18:46:00,55.0,36.7,30.17,South,180,7.4,-999.0,50,-99.99,,,0.00,Acu-Link.com,2013-01-19 00:46:00,
2013-01-18 19:01:00,53.4,36.2,30.17,SSE,157,7.4,-999.0,52,-99.99,,,0.00,Acu-Link.com,2013-01-19 01:01:00,
2013-01-18 19:16:00,52.3,36.2,30.18,South,180,5.8,-999.0,54,-99.99,,,0.00,Acu-Link.com,2013-01-19 01:16:00,
2013-01-18 19:32:00,53.1,36.9,30.17,South,180,9.8,-999.0,54,-99.99,,,0.00,Acu-Link.com,2013-01-19 01:32:00,
2013-01-18 19:47:00,53.4,36.7,30.17,SSW,202,7.8,-999.0,53,-99.99,,,0.00,Acu-Link.com,2013-01-19 01:47:00,
2013-01-18 20:02:00,52.0,36.3,30.17,SSE,157,5.8,-999.0,55,-99.99,,,0.00,Acu-Link.com,2013-01-19 02:02:00,
2013-01-18 20:17:00,50.9,35.8,30.16,SSE,157,9.8,-999.0,56,-99.99,,,0.00,Acu-Link.com,2013-01-19 02:17:00,
2013-01-18 20:32:00,50.9,35.8,30.16,SSE,157,11.4,-999.0,56,-99.99,,,0.00,Acu-Link.com,2013-01-19 02:32:00,
2013-01-18 20:48:00,50.0,35.8,30.16,South,180,8.9,-999.0,58,-99.99,,,0.00,Acu-Link.com,2013-01-19 02:48:00,
2013-01-18 21:03:00,49.3,35.1,30.15,SSE,157,9.8,-999.0,58,-99.99,,,0.00,Acu-Link.com,2013-01-19 03:03:00,
2013-01-18 21:18:00,49.1,35.4,30.16,SSE,157,11.0,-999.0,59,-99.99,,,0.00,Acu-Link.com,2013-01-19 03:18:00,
2013-01-18 21:33:00,48.0,34.8,30.15,SSE,157,7.4,-999.0,60,-99.99,,,0.00,Acu-Link.com,2013-01-19 03:33:00,
2013-01-18 21:48:00,47.1,35.2,30.15,SSE,157,7.4,-999.0,63,-99.99,,,0.00,Acu-Link.com,2013-01-19 03:48:00,
2013-01-18 22:04:00,46.4,34.9,30.14,ESE,112,4.7,-999.0,64,-99.99,,,0.00,Acu-Link.com,2013-01-19 04:04:00,
2013-01-18 22:19:00,43.5,34.0,30.15,SE,135,5.8,-999.0,69,-99.99,,,0.00,Acu-Link.com,2013-01-19 04:19:00,
2013-01-18 22:34:00,44.1,34.6,30.15,SSE,157,7.8,-999.0,69,-99.99,,,0.00,Acu-Link.com,2013-01-19 04:34:00,
2013-01-18 22:49:00,43.0,34.2,30.15,SSE,157,4.3,-999.0,71,-99.99,,,0.00,Acu-Link.com,2013-01-19 04:49:00,
2013-01-18 23:05:00,42.1,34.1,30.13,SSE,157,4.3,-999.0,73,-99.99,,,0.00,Acu-Link.com,2013-01-19 05:05:00,
2013-01-18 23:20:00,43.3,34.9,30.14,SSW,202,7.4,-999.0,72,-99.99,,,0.00,Acu-Link.com,2013-01-19 05:20:00,
2013-01-18 23:35:00,45.0,35.4,30.13,South,180,5.8,-999.0,69,-99.99,,,0.00,Acu-Link.com,2013-01-19 05:35:00,
2013-01-18 23:50:00,44.1,34.6,30.13,SW,225,6.7,-999.0,69,-99.99,,,0.00,Acu-Link.com,2013-01-19 05:50:00,